﻿測定場所 (Monitoring sites),日付 (Measurement date),時間 (Measurement time),線量率 最大値 (max) μGy/h,線量率 最小値 (min) μGy/h,線量率 平均値 (average) μGy/h,
江戸川 (Edogawa),2021-10-24,23:01～24:00,0.0433,0.0364,0.0404,
江戸川 (Edogawa),2021-10-24,22:01～23:00,0.0444,0.0371,0.0409,
江戸川 (Edogawa),2021-10-24,21:01～22:00,0.0438,0.0371,0.0405,
江戸川 (Edogawa),2021-10-24,20:01～21:00,0.0440,0.0364,0.0407,
江戸川 (Edogawa),2021-10-24,19:01～20:00,0.0439,0.0377,0.0411,
江戸川 (Edogawa),2021-10-24,18:01～19:00,0.0444,0.0382,0.0413,
江戸川 (Edogawa),2021-10-24,17:01～18:00,0.0433,0.0373,0.0407,
江戸川 (Edogawa),2021-10-24,16:01～17:00,0.0441,0.0374,0.0407,
江戸川 (Edogawa),2021-10-24,15:01～16:00,0.0447,0.0382,0.0407,
江戸川 (Edogawa),2021-10-24,14:01～15:00,0.0437,0.0381,0.0412,
江戸川 (Edogawa),2021-10-24,13:01～14:00,0.0438,0.0371,0.0409,
江戸川 (Edogawa),2021-10-24,12:01～13:00,0.0448,0.0381,0.0410,
江戸川 (Edogawa),2021-10-24,11:01～12:00,0.0444,0.0377,0.0411,
江戸川 (Edogawa),2021-10-24,10:01～11:00,0.0450,0.0389,0.0414,
江戸川 (Edogawa),2021-10-24,09:01～10:00,0.0446,0.0382,0.0413,
江戸川 (Edogawa),2021-10-24,08:01～09:00,0.0435,0.0382,0.0411,
江戸川 (Edogawa),2021-10-24,07:01～08:00,0.0449,0.0383,0.0410,
江戸川 (Edogawa),2021-10-24,06:01～07:00,0.0434,0.0386,0.0411,
江戸川 (Edogawa),2021-10-24,05:01～06:00,0.0447,0.0380,0.0406,
江戸川 (Edogawa),2021-10-24,04:01～05:00,0.0437,0.0371,0.0410,
江戸川 (Edogawa),2021-10-24,03:01～04:00,0.0442,0.0370,0.0407,
江戸川 (Edogawa),2021-10-24,02:01～03:00,0.0435,0.0375,0.0409,
江戸川 (Edogawa),2021-10-24,01:01～02:00,0.0435,0.0365,0.0405,
江戸川 (Edogawa),2021-10-24,00:01～01:00,0.0432,0.0369,0.0404,
江戸川 (Edogawa),2021-10-23,23:01～24:00,0.0437,0.0381,0.0407,
江戸川 (Edogawa),2021-10-23,22:01～23:00,0.0439,0.0369,0.0406,
江戸川 (Edogawa),2021-10-23,21:01～22:00,0.0430,0.0377,0.0405,
江戸川 (Edogawa),2021-10-23,20:01～21:00,0.0437,0.0380,0.0403,
江戸川 (Edogawa),2021-10-23,19:01～20:00,0.0434,0.0367,0.0404,
江戸川 (Edogawa),2021-10-23,18:01～19:00,0.0430,0.0385,0.0406,
江戸川 (Edogawa),2021-10-23,17:01～18:00,0.0431,0.0379,0.0406,
江戸川 (Edogawa),2021-10-23,16:01～17:00,0.0437,0.0376,0.0405,
江戸川 (Edogawa),2021-10-23,15:01～16:00,0.0449,0.0383,0.0410,
江戸川 (Edogawa),2021-10-23,14:01～15:00,0.0446,0.0389,0.0412,
江戸川 (Edogawa),2021-10-23,13:01～14:00,0.0447,0.0381,0.0413,
江戸川 (Edogawa),2021-10-23,12:01～13:00,0.0446,0.0389,0.0410,
江戸川 (Edogawa),2021-10-23,11:01～12:00,0.0438,0.0369,0.0409,
江戸川 (Edogawa),2021-10-23,10:01～11:00,0.0446,0.0378,0.0407,
江戸川 (Edogawa),2021-10-23,09:01～10:00,0.0447,0.0385,0.0409,
江戸川 (Edogawa),2021-10-23,08:01～09:00,0.0439,0.0369,0.0409,
江戸川 (Edogawa),2021-10-23,07:01～08:00,0.0442,0.0377,0.0406,
江戸川 (Edogawa),2021-10-23,06:01～07:00,0.0427,0.0372,0.0402,
江戸川 (Edogawa),2021-10-23,05:01～06:00,0.0448,0.0376,0.0403,
江戸川 (Edogawa),2021-10-23,04:01～05:00,0.0438,0.0372,0.0404,
江戸川 (Edogawa),2021-10-23,03:01～04:00,0.0430,0.0371,0.0403,
江戸川 (Edogawa),2021-10-23,02:01～03:00,0.0440,0.0375,0.0406,
江戸川 (Edogawa),2021-10-23,01:01～02:00,0.0438,0.0380,0.0405,
江戸川 (Edogawa),2021-10-23,00:01～01:00,0.0436,0.0369,0.0408,
江戸川 (Edogawa),2021-10-22,23:01～24:00,0.0462,0.0394,0.0427,
江戸川 (Edogawa),2021-10-22,22:01～23:00,0.0472,0.0422,0.0444,
江戸川 (Edogawa),2021-10-22,21:01～22:00,0.0482,0.0400,0.0435,
江戸川 (Edogawa),2021-10-22,20:01～21:00,0.0471,0.0405,0.0440,
江戸川 (Edogawa),2021-10-22,19:01～20:00,0.0463,0.0391,0.0432,
江戸川 (Edogawa),2021-10-22,18:01～19:00,0.0452,0.0388,0.0422,
江戸川 (Edogawa),2021-10-22,17:01～18:00,0.0513,0.0421,0.0463,
江戸川 (Edogawa),2021-10-22,16:01～17:00,0.0534,0.0411,0.0464,
江戸川 (Edogawa),2021-10-22,15:01～16:00,0.0469,0.0409,0.0439,
江戸川 (Edogawa),2021-10-22,14:01～15:00,0.0466,0.0390,0.0429,
江戸川 (Edogawa),2021-10-22,13:01～14:00,0.0482,0.0424,0.0446,
江戸川 (Edogawa),2021-10-22,12:01～13:00,0.0485,0.0392,0.0431,
江戸川 (Edogawa),2021-10-22,11:01～12:00,0.0480,0.0409,0.0449,
江戸川 (Edogawa),2021-10-22,10:01～11:00,0.0508,0.0432,0.0471,
江戸川 (Edogawa),2021-10-22,09:01～10:00,0.0501,0.0411,0.0459,
江戸川 (Edogawa),2021-10-22,08:01～09:00,0.0503,0.0432,0.0468,
江戸川 (Edogawa),2021-10-22,07:01～08:00,0.0510,0.0456,0.0483,
江戸川 (Edogawa),2021-10-22,06:01～07:00,0.0519,0.0440,0.0477,
江戸川 (Edogawa),2021-10-22,05:01～06:00,0.0508,0.0418,0.0457,
江戸川 (Edogawa),2021-10-22,04:01～05:00,0.0492,0.0423,0.0451,
江戸川 (Edogawa),2021-10-22,03:01～04:00,0.0474,0.0407,0.0440,
江戸川 (Edogawa),2021-10-22,02:01～03:00,0.0476,0.0416,0.0445,
江戸川 (Edogawa),2021-10-22,01:01～02:00,0.0468,0.0388,0.0417,
江戸川 (Edogawa),2021-10-22,00:01～01:00,0.0441,0.0386,0.0414,
江戸川 (Edogawa),2021-10-21,23:01～24:00,0.0437,0.0382,0.0408,
江戸川 (Edogawa),2021-10-21,22:01～23:00,0.0443,0.0377,0.0411,
江戸川 (Edogawa),2021-10-21,21:01～22:00,0.0439,0.0382,0.0412,
江戸川 (Edogawa),2021-10-21,20:01～21:00,0.0446,0.0379,0.0410,
江戸川 (Edogawa),2021-10-21,19:01～20:00,0.0433,0.0381,0.0411,
江戸川 (Edogawa),2021-10-21,18:01～19:00,0.0440,0.0377,0.0409,
江戸川 (Edogawa),2021-10-21,17:01～18:00,0.0455,0.0380,0.0407,
江戸川 (Edogawa),2021-10-21,16:01～17:00,0.0428,0.0382,0.0407,
江戸川 (Edogawa),2021-10-21,15:01～16:00,0.0444,0.0384,0.0410,
江戸川 (Edogawa),2021-10-21,14:01～15:00,0.0440,0.0385,0.0414,
江戸川 (Edogawa),2021-10-21,13:01～14:00,0.0441,0.0382,0.0407,
江戸川 (Edogawa),2021-10-21,12:01～13:00,0.0454,0.0374,0.0409,
江戸川 (Edogawa),2021-10-21,11:01～12:00,0.0442,0.0386,0.0410,
江戸川 (Edogawa),2021-10-21,10:01～11:00,0.0448,0.0385,0.0413,
江戸川 (Edogawa),2021-10-21,09:01～10:00,0.0442,0.0390,0.0416,
江戸川 (Edogawa),2021-10-21,08:01～09:00,0.0447,0.0392,0.0413,
江戸川 (Edogawa),2021-10-21,07:01～08:00,0.0448,0.0392,0.0411,
江戸川 (Edogawa),2021-10-21,06:01～07:00,0.0435,0.0376,0.0409,
江戸川 (Edogawa),2021-10-21,05:01～06:00,0.0440,0.0380,0.0409,
江戸川 (Edogawa),2021-10-21,04:01～05:00,0.0447,0.0370,0.0409,
江戸川 (Edogawa),2021-10-21,03:01～04:00,0.0444,0.0378,0.0410,
江戸川 (Edogawa),2021-10-21,02:01～03:00,0.0434,0.0387,0.0414,
江戸川 (Edogawa),2021-10-21,01:01～02:00,0.0454,0.0374,0.0409,
江戸川 (Edogawa),2021-10-21,00:01～01:00,0.0446,0.0381,0.0411,
江戸川 (Edogawa),2021-10-20,23:01～24:00,0.0434,0.0372,0.0410,
江戸川 (Edogawa),2021-10-20,22:01～23:00,0.0438,0.0379,0.0408,
江戸川 (Edogawa),2021-10-20,21:01～22:00,0.0447,0.0385,0.0413,
江戸川 (Edogawa),2021-10-20,20:01～21:00,0.0446,0.0380,0.0410,
江戸川 (Edogawa),2021-10-20,19:01～20:00,0.0439,0.0383,0.0411,
江戸川 (Edogawa),2021-10-20,18:01～19:00,0.0449,0.0387,0.0413,
江戸川 (Edogawa),2021-10-20,17:01～18:00,0.0436,0.0383,0.0415,
江戸川 (Edogawa),2021-10-20,16:01～17:00,0.0442,0.0387,0.0411,
江戸川 (Edogawa),2021-10-20,15:01～16:00,0.0443,0.0388,0.0414,
江戸川 (Edogawa),2021-10-20,14:01～15:00,0.0436,0.0383,0.0414,
江戸川 (Edogawa),2021-10-20,13:01～14:00,0.0456,0.0388,0.0421,
江戸川 (Edogawa),2021-10-20,12:01～13:00,0.0461,0.0384,0.0415,
江戸川 (Edogawa),2021-10-20,11:01～12:00,0.0451,0.0399,0.0419,
江戸川 (Edogawa),2021-10-20,10:01～11:00,0.0445,0.0376,0.0416,
江戸川 (Edogawa),2021-10-20,09:01～10:00,0.0439,0.0389,0.0416,
江戸川 (Edogawa),2021-10-20,08:01～09:00,0.0442,0.0383,0.0410,
江戸川 (Edogawa),2021-10-20,07:01～08:00,0.0451,0.0382,0.0410,
江戸川 (Edogawa),2021-10-20,06:01～07:00,0.0439,0.0377,0.0406,
江戸川 (Edogawa),2021-10-20,05:01～06:00,0.0436,0.0376,0.0405,
江戸川 (Edogawa),2021-10-20,04:01～05:00,0.0453,0.0385,0.0406,
江戸川 (Edogawa),2021-10-20,03:01～04:00,0.0457,0.0382,0.0413,
江戸川 (Edogawa),2021-10-20,02:01～03:00,0.0481,0.0385,0.0440,
江戸川 (Edogawa),2021-10-20,01:01～02:00,0.0632,0.0462,0.0542,
江戸川 (Edogawa),2021-10-20,00:01～01:00,0.0698,0.0586,0.0631,
江戸川 (Edogawa),2021-10-19,23:01～24:00,0.0656,0.0543,0.0599,
江戸川 (Edogawa),2021-10-19,22:01～23:00,0.0595,0.0445,0.0516,
江戸川 (Edogawa),2021-10-19,21:01～22:00,0.0508,0.0397,0.0446,
江戸川 (Edogawa),2021-10-19,20:01～21:00,0.0463,0.0393,0.0420,
江戸川 (Edogawa),2021-10-19,19:01～20:00,0.0444,0.0384,0.0412,
江戸川 (Edogawa),2021-10-19,18:01～19:00,0.0441,0.0372,0.0407,
江戸川 (Edogawa),2021-10-19,17:01～18:00,0.0436,0.0381,0.0412,
江戸川 (Edogawa),2021-10-19,16:01～17:00,0.0448,0.0381,0.0411,
江戸川 (Edogawa),2021-10-19,15:01～16:00,0.0447,0.0390,0.0414,
江戸川 (Edogawa),2021-10-19,14:01～15:00,0.0455,0.0374,0.0412,
江戸川 (Edogawa),2021-10-19,13:01～14:00,0.0435,0.0387,0.0411,
江戸川 (Edogawa),2021-10-19,12:01～13:00,0.0438,0.0369,0.0410,
江戸川 (Edogawa),2021-10-19,11:01～12:00,0.0442,0.0385,0.0417,
江戸川 (Edogawa),2021-10-19,10:01～11:00,0.0449,0.0387,0.0421,
江戸川 (Edogawa),2021-10-19,09:01～10:00,0.0467,0.0403,0.0431,
江戸川 (Edogawa),2021-10-19,08:01～09:00,0.0485,0.0416,0.0444,
江戸川 (Edogawa),2021-10-19,07:01～08:00,0.0493,0.0410,0.0444,
江戸川 (Edogawa),2021-10-19,06:01～07:00,0.0445,0.0386,0.0415,
江戸川 (Edogawa),2021-10-19,05:01～06:00,0.0458,0.0392,0.0419,
江戸川 (Edogawa),2021-10-19,04:01～05:00,0.0454,0.0402,0.0427,
江戸川 (Edogawa),2021-10-19,03:01～04:00,0.0443,0.0389,0.0414,
江戸川 (Edogawa),2021-10-19,02:01～03:00,0.0427,0.0382,0.0406,
江戸川 (Edogawa),2021-10-19,01:01～02:00,0.0446,0.0367,0.0405,
江戸川 (Edogawa),2021-10-19,00:01～01:00,0.0439,0.0377,0.0406,
江戸川 (Edogawa),2021-10-18,23:01～24:00,0.0430,0.0369,0.0404,
江戸川 (Edogawa),2021-10-18,22:01～23:00,0.0447,0.0372,0.0405,
江戸川 (Edogawa),2021-10-18,21:01～22:00,0.0435,0.0365,0.0402,
江戸川 (Edogawa),2021-10-18,20:01～21:00,0.0422,0.0374,0.0399,
江戸川 (Edogawa),2021-10-18,19:01～20:00,0.0445,0.0370,0.0407,
江戸川 (Edogawa),2021-10-18,18:01～19:00,0.0429,0.0376,0.0404,
江戸川 (Edogawa),2021-10-18,17:01～18:00,0.0432,0.0373,0.0403,
江戸川 (Edogawa),2021-10-18,16:01～17:00,0.0436,0.0368,0.0407,
江戸川 (Edogawa),2021-10-18,15:01～16:00,0.0432,0.0371,0.0405,
江戸川 (Edogawa),2021-10-18,14:01～15:00,0.0438,0.0368,0.0404,
江戸川 (Edogawa),2021-10-18,13:01～14:00,0.0454,0.0384,0.0406,
江戸川 (Edogawa),2021-10-18,12:01～13:00,0.0436,0.0378,0.0406,
江戸川 (Edogawa),2021-10-18,11:01～12:00,0.0454,0.0367,0.0411,
江戸川 (Edogawa),2021-10-18,10:01～11:00,0.0435,0.0376,0.0407,
江戸川 (Edogawa),2021-10-18,09:01～10:00,0.0432,0.0379,0.0406,
江戸川 (Edogawa),2021-10-18,08:01～09:00,0.0429,0.0368,0.0404,
江戸川 (Edogawa),2021-10-18,07:01～08:00,0.0438,0.0374,0.0405,
江戸川 (Edogawa),2021-10-18,06:01～07:00,0.0426,0.0371,0.0402,
江戸川 (Edogawa),2021-10-18,05:01～06:00,0.0431,0.0376,0.0401,
江戸川 (Edogawa),2021-10-18,04:01～05:00,0.0432,0.0378,0.0403,
江戸川 (Edogawa),2021-10-18,03:01～04:00,0.0455,0.0371,0.0402,
江戸川 (Edogawa),2021-10-18,02:01～03:00,0.0430,0.0373,0.0399,
江戸川 (Edogawa),2021-10-18,01:01～02:00,0.0439,0.0372,0.0403,
江戸川 (Edogawa),2021-10-18,00:01～01:00,0.0428,0.0380,0.0403,
